Location: Arcones
(41.1182°N, 3.7238°W)
Time: 20:41:42
(UTC+00:00)

Cosmos 1867 - Pass Details

Date: 11 December 2025
Orbit: 777 x 797 km, 65.0° (Epoch: 12 January)

Event Time Altitude Azimuth Distance (km) Brightness Sun altitude
Rises 17:08:23 0° 333° (NNW) 3,307 6.8 -4.5°
Reaches altitude 10° 17:11:01 10° 342° (NNW) 2,374 6.0 -4.9°
Maximum altitude 17:16:04 37° 49° (NE) 1,220 4.1 -5.8°
Drops below altitude 10° 17:21:04 10° 116° (ESE) 2,358 5.7 -6.6°
Sets 17:23:39 0° 125° (SE) 3,281 6.5 -7.1°
